Home   Weather   Tsingtao   Past weeks

Flag for China Past Weather in Tsingtao, Shandong, China — Yesterday and Last 2 Weeks

Now
34 °F

Clear.


Feels Like: 34 °F
Forecast: 32 / 44 °F
Wind: No wind

Location: Qingdao Airport

Current Time: Jan 24, 2017 at 5:20:30 pm

Latest Report: Jan 24, 2017 at 5:00 pm


Visibility: 4 mi

Pressure: 30.60 "Hg

Humidity: 51%

Dew Point: 18 °F

Location of TsingtaoLocation

Past Weather in Tsingtao — Graph

°F

Tsingtao Temperature Yesterday

Maximum temperature yesterday: 37 °F (at 2:00 pm)
Minimum temperature yesterday: 16 °F (at 4:00 am)
Average temperature yesterday: 25 °F

High & Low Weather Summary for the Past Weeks

 TemperatureHumidityPressure
High45 °F (Jan 12, 2:00 pm)93% (Jan 10, 1:00 am)30.66 "Hg (Jan 10, 1:00 am)
Low16 °F (Jan 15, 6:00 am)21% (Jan 23, 3:00 pm)30.09 "Hg (Jan 12, 2:00 pm)
Average30 °F61%30.42 "Hg
* Reported Jan 9 4:00 pm — Jan 24 4:00 pm, Tsingtao, Weather by CustomWeather, © 2017

Note: Actual official high and low records may vary slightly from our data, if they occured in-between our weather recording intervals... More about our weather records

Advertising

Tsingtao Weather History for the Previous 24 Hours

Scroll right to see more
 ConditionsComfort  
Time TempWeatherWind HumidityBarometerVisibility
4:00 pm
Tue, Jan 24
37 °FSunny.1 mph45%30.60 "Hg10 mi
3:00 pm37 °FSunny.6 mph41%30.60 "Hg10 mi
2:00 pm39 °FPassing clouds.3 mph45%30.60 "HgN/A
1:00 pm39 °FPassing clouds.3 mph42%30.60 "HgN/A
12:00 pm39 °FSunny.1 mph39%30.60 "Hg10 mi
11:00 am36 °FSunny.1 mph48%30.63 "Hg10 mi
10:00 am34 °FClear.1 mph56%30.66 "Hg4 mi
9:00 am28 °FClear.1 mph69%30.66 "Hg4 mi
8:00 am23 °FClear.3 mph74%30.63 "Hg4 mi
7:00 am23 °FClear.1 mph68%30.63 "Hg4 mi
6:00 am21 °FClear.1 mph74%30.60 "Hg10 mi
5:00 am23 °FClear.1 mph74%30.60 "Hg10 mi
4:00 am19 °FClear.1 mph73%30.60 "Hg10 mi
3:00 am23 °FClear.1 mph68%30.60 "Hg10 mi
2:00 am21 °FClear.1 mph68%30.60 "Hg10 mi
1:00 am21 °FClear.1 mph68%30.60 "Hg10 mi
12:00 am23 °FClear.1 mph63%30.60 "Hg10 mi
11:00 pm
Mon, Jan 23
23 °FClear.1 mph63%30.60 "Hg10 mi
10:00 pm23 °FClear.1 mph63%30.60 "Hg10 mi
9:00 pm25 °FClear.3 mph59%30.57 "Hg10 mi
8:00 pm27 °FClear.1 mph50%30.57 "Hg10 mi
7:00 pm25 °FClear.3 mph50%30.57 "Hg10 mi
6:00 pm30 °FClear.3 mph37%30.57 "Hg10 mi
5:00 pm32 °FSunny.3 mph32%30.54 "Hg10 mi
Weather by CustomWeather, © 2017

See weather overviewHow to use our weather pages